Location: Rounton
(54.4000°N, 1.3500°W)
Time: 23:19:53
(UTC+00:00)

Transit 2A Rocket - Visible Passes

Search period start: 29 November 2021 00:00
Search period end: 09 December 2021 00:00
Orbit: 584 x 918 km, 66.7° (Epoch: 29 November)

Date Brightness Start Highest point End Pass type
(mag) Time Alt. Az. Time Alt. Az. Time Alt. Az.
29 Nov 5.5 16:51:40 10° NW 16:57:51 84° SW 17:03:47 10° SE visible
29 Nov 7.7 18:35:11 10° WNW 18:39:45 22° WSW 18:44:09 10° SSW visible
30 Nov 7.1 17:52:03 10° NW 17:57:24 33° WSW 18:02:33 10° S visible
01 Dec 8.6 06:53:39 10° ESE 06:55:49 12° E 06:58:00 10° ENE visible
01 Dec 6.5 17:09:06 10° NW 17:14:57 48° WSW 17:20:32 10° SSE visible
01 Dec 8.6 18:55:01 10° W 18:56:09 11° W 18:57:18 10° WSW visible
02 Dec 5.8 16:26:17 10° NW 16:32:24 69° SW 16:38:13 10° SSE visible
02 Dec 8.2 18:10:17 10° WNW 18:14:01 17° WSW 18:17:38 10° SW visible
03 Dec 7.9 07:07:42 10° SSE 07:12:17 25° ESE 07:17:04 10° ENE visible
03 Dec 7.7 17:26:53 10° WNW 17:31:45 26° WSW 17:36:26 10° SSW visible
04 Dec 8.4 06:26:32 10° SE 06:30:02 17° ESE 06:33:37 10° ENE visible
04 Dec 7.1 16:43:49 10° NW 16:49:23 38° WSW 16:54:40 10° S visible
05 Dec 8.9 05:47:28 10° ESE 05:47:53 10° E 05:48:19 10° E visible
05 Dec 6.6 07:23:33 10° S 07:29:03 47° ESE 07:34:52 10° NE visible
05 Dec 8.7 17:45:47 10° WNW 17:48:14 13° W 17:50:37 10° SW visible
06 Dec 7.4 06:41:34 10° S 06:46:37 32° ESE 06:51:55 10° NE visible
06 Dec 8.3 17:01:51 10° WNW 17:06:03 20° WSW 17:10:05 10° SSW visible
07 Dec 8.0 06:00:00 10° SSE 06:04:17 22° ESE 06:08:45 10° ENE visible
07 Dec 7.7 16:18:36 10° NW 16:23:44 29° WSW 16:28:39 10° S visible
08 Dec 8.4 05:19:10 10° SE 05:22:04 14° ESE 05:25:03 10° ENE visible
08 Dec 6.1 06:57:47 10° SSW 07:03:31 59° ESE 07:09:32 10° NE visible
